IBE650 LDPL-LDDU

Flight info

Callsign IBE650
Flight time 0h 41m
Altitude 19000
Route LOS Y88 SAL/N0405F180 Y88 SPL/N0399F170 L607 NERRA
Aircraft A346/H-SDE2E3FGHIJ3J4J5M1RWXY/LB1D1

Departure

Time 2026-05-07 08:56
Airport Pula Airport (LDPL)

Arrival

Time 2026-05-07 09:37
Airport Dubrovnik Ruđer Bošković Airport (LDDU)
Time Latitude Longitude Altitude Speed Heading
2026-05-07 08:48 44.89465 13.90443 186 ft 0 kts 319°
2026-05-07 08:49 44.89466 13.90442 183 ft 0 kts 319°
2026-05-07 08:50 44.89454 13.90456 184 ft 3 kts 319°
2026-05-07 08:51 44.89441 13.90474 194 ft 3 kts 294°
2026-05-07 08:51 44.89437 13.90498 201 ft 2 kts 255°
2026-05-07 08:51 44.89441 13.90514 200 ft 0 kts 227°
2026-05-07 08:51 44.89441 13.90512 200 ft 0 kts 239°
2026-05-07 08:52 44.89445 13.90485 195 ft 6 kts 279°
2026-05-07 08:52 44.89438 13.90464 184 ft 0 kts 223°
2026-05-07 08:53 44.89424 13.90445 183 ft 6 kts 225°
2026-05-07 08:53 44.89419 13.90437 183 ft 0 kts 226°
2026-05-07 08:53 44.89418 13.90436 183 ft 0 kts 226°
2026-05-07 08:54 44.89415 13.90431 183 ft 2 kts 226°
2026-05-07 08:54 44.89402 13.90411 182 ft 5 kts 227°
2026-05-07 08:54 44.89390 13.90394 182 ft 0 kts 225°
2026-05-07 08:54 44.89389 13.90393 182 ft 1 kts 225°
2026-05-07 08:55 44.89367 13.90374 181 ft 7 kts 199°
2026-05-07 08:55 44.89324 13.90403 181 ft 7 kts 117°
2026-05-07 08:55 44.89317 13.90472 182 ft 7 kts 91°
2026-05-07 08:55 44.89322 13.90754 189 ft 59 kts 88°
2026-05-07 08:56 44.89340 13.91624 217 ft 116 kts 89°
2026-05-07 08:56 44.89372 13.93008 264 ft 164 kts 88°
2026-05-07 08:56 44.89385 13.94626 955 ft 161 kts 89°
2026-05-07 08:56 44.89412 13.96152 1901 ft 152 kts 88°
2026-05-07 08:57 44.89448 13.97665 2611 ft 160 kts 88°
2026-05-07 08:57 44.89490 13.99298 3116 ft 173 kts 88°
2026-05-07 08:57 44.89529 14.01043 3634 ft 183 kts 89°
2026-05-07 08:57 44.89210 14.02783 4143 ft 190 kts 129°
2026-05-07 08:58 44.88108 14.03771 4682 ft 194 kts 162°
2026-05-07 08:58 44.86840 14.04612 5083 ft 212 kts 148°
2026-05-07 08:58 44.85588 14.05889 5619 ft 232 kts 142°
2026-05-07 08:58 44.84301 14.07418 6274 ft 251 kts 139°
2026-05-07 08:59 44.82948 14.09120 6996 ft 270 kts 138°
2026-05-07 08:59 44.81694 14.11162 7805 ft 282 kts 128°
2026-05-07 08:59 44.80494 14.13381 8748 ft 286 kts 127°
2026-05-07 08:59 44.79291 14.15634 9704 ft 289 kts 127°
2026-05-07 09:00 44.78064 14.17909 10536 ft 297 kts 128°
2026-05-07 09:00 44.76781 14.20276 11142 ft 312 kts 128°
2026-05-07 09:00 44.75431 14.22763 11671 ft 328 kts 128°
2026-05-07 09:00 44.74012 14.25380 12171 ft 345 kts 128°
2026-05-07 09:01 44.72543 14.28091 12578 ft 361 kts 128°
2026-05-07 09:01 44.70987 14.30967 12951 ft 378 kts 128°
2026-05-07 09:01 44.69362 14.33959 13258 ft 393 kts 128°
2026-05-07 09:01 44.67668 14.37073 13497 ft 409 kts 128°
2026-05-07 09:02 44.65920 14.40289 13813 ft 418 kts 128°
2026-05-07 09:02 44.64147 14.43551 14328 ft 421 kts 128°
2026-05-07 09:02 44.62365 14.46822 14894 ft 423 kts 128°
2026-05-07 09:02 44.60571 14.50113 15433 ft 425 kts 128°
2026-05-07 09:03 44.58770 14.53420 15928 ft 428 kts 128°
2026-05-07 09:03 44.56957 14.56744 16396 ft 431 kts 128°
2026-05-07 09:03 44.55125 14.60091 16851 ft 434 kts 128°
2026-05-07 09:03 44.53277 14.63454 17294 ft 437 kts 128°
2026-05-07 09:04 44.51414 14.66834 17732 ft 440 kts 128°
2026-05-07 09:04 44.49541 14.70235 18149 ft 442 kts 128°
2026-05-07 09:04 44.47661 14.73652 18546 ft 445 kts 128°
2026-05-07 09:04 44.45767 14.77095 18913 ft 447 kts 128°
2026-05-07 09:05 44.43865 14.80549 19042 ft 448 kts 128°
2026-05-07 09:05 44.41961 14.83998 19026 ft 447 kts 128°
2026-05-07 09:05 44.40060 14.87434 19004 ft 447 kts 128°
2026-05-07 09:05 44.38152 14.90868 19006 ft 447 kts 128°
2026-05-07 09:06 44.36245 14.94305 19011 ft 447 kts 128°
2026-05-07 09:06 44.34338 14.97741 19009 ft 447 kts 128°
2026-05-07 09:06 44.32432 15.01177 19009 ft 447 kts 128°
2026-05-07 09:06 44.30527 15.04608 19009 ft 448 kts 128°
2026-05-07 09:07 44.28642 15.07997 19009 ft 448 kts 128°
2026-05-07 09:07 44.26734 15.11427 19009 ft 447 kts 128°
2026-05-07 09:07 44.24823 15.14854 19010 ft 447 kts 128°
2026-05-07 09:07 44.22912 15.18274 19009 ft 447 kts 128°
2026-05-07 09:08 44.20996 15.21694 19009 ft 448 kts 128°
2026-05-07 09:08 44.19079 15.25119 19009 ft 448 kts 128°
2026-05-07 09:08 44.17163 15.28538 19009 ft 448 kts 128°
2026-05-07 09:08 44.15244 15.31954 19009 ft 448 kts 128°
2026-05-07 09:09 44.13324 15.35363 19009 ft 448 kts 128°
2026-05-07 09:09 44.11399 15.38774 19009 ft 448 kts 128°
2026-05-07 09:09 44.09475 15.42184 19008 ft 448 kts 128°
2026-05-07 09:09 44.07553 15.45594 19009 ft 448 kts 128°
2026-05-07 09:10 44.05632 15.48998 19009 ft 448 kts 128°
2026-05-07 09:10 44.03708 15.52403 19009 ft 448 kts 128°
2026-05-07 09:10 44.01783 15.55807 19009 ft 448 kts 128°
2026-05-07 09:10 43.99857 15.59210 19009 ft 448 kts 128°
2026-05-07 09:11 43.97926 15.62611 19008 ft 448 kts 128°
2026-05-07 09:11 43.95994 15.66009 19009 ft 448 kts 128°
2026-05-07 09:11 43.94061 15.69406 19009 ft 448 kts 128°
2026-05-07 09:11 43.92129 15.72801 19009 ft 448 kts 128°
2026-05-07 09:12 43.90196 15.76195 19009 ft 448 kts 128°
2026-05-07 09:12 43.88262 15.79585 19009 ft 448 kts 128°
2026-05-07 09:12 43.86354 15.82923 19009 ft 448 kts 129°
2026-05-07 09:12 43.84418 15.86306 19009 ft 448 kts 129°
2026-05-07 09:13 43.82481 15.89684 19010 ft 448 kts 129°
2026-05-07 09:13 43.80544 15.93060 19009 ft 448 kts 129°
2026-05-07 09:13 43.78608 15.96441 19009 ft 448 kts 129°
2026-05-07 09:13 43.76684 15.99831 19008 ft 448 kts 128°
2026-05-07 09:14 43.74786 16.03257 19009 ft 449 kts 127°
2026-05-07 09:14 43.72908 16.06710 19009 ft 449 kts 127°
2026-05-07 09:14 43.71040 16.10175 19009 ft 449 kts 127°
2026-05-07 09:14 43.69172 16.13640 19009 ft 449 kts 127°
2026-05-07 09:15 43.67302 16.17096 19010 ft 449 kts 127°
2026-05-07 09:15 43.65427 16.20543 19009 ft 449 kts 127°
2026-05-07 09:15 43.63548 16.23987 19008 ft 449 kts 127°
2026-05-07 09:15 43.61665 16.27423 19009 ft 449 kts 127°
2026-05-07 09:16 43.59781 16.30853 19009 ft 449 kts 127°
2026-05-07 09:16 43.57892 16.34286 19009 ft 450 kts 127°
2026-05-07 09:16 43.56002 16.37714 19010 ft 448 kts 127°
2026-05-07 09:16 43.54113 16.41135 19010 ft 448 kts 127°
2026-05-07 09:17 43.52227 16.44548 19009 ft 447 kts 127°
2026-05-07 09:17 43.50371 16.47913 19009 ft 448 kts 127°
2026-05-07 09:17 43.48489 16.51328 19009 ft 447 kts 127°
2026-05-07 09:17 43.46606 16.54740 19009 ft 447 kts 127°
2026-05-07 09:18 43.44721 16.58149 19009 ft 447 kts 127°
2026-05-07 09:18 43.42835 16.61554 19009 ft 447 kts 128°
2026-05-07 09:18 43.40945 16.64956 19009 ft 447 kts 128°
2026-05-07 09:18 43.39053 16.68354 19009 ft 447 kts 128°
2026-05-07 09:19 43.37163 16.71747 19009 ft 447 kts 128°
2026-05-07 09:19 43.35270 16.75142 19010 ft 448 kts 128°
2026-05-07 09:19 43.33372 16.78536 19009 ft 448 kts 128°
2026-05-07 09:19 43.32115 16.80783 19009 ft 448 kts 128°
2026-05-07 09:20 43.30216 16.84182 19009 ft 449 kts 128°
2026-05-07 09:20 43.28320 16.87579 19010 ft 448 kts 128°
2026-05-07 09:20 43.26426 16.90964 19010 ft 447 kts 128°
2026-05-07 09:20 43.24527 16.94352 19009 ft 447 kts 128°
2026-05-07 09:21 43.22634 16.97731 18944 ft 444 kts 128°
2026-05-07 09:21 43.20777 17.01043 18377 ft 432 kts 128°
2026-05-07 09:21 43.18961 17.04271 17301 ft 425 kts 128°
2026-05-07 09:21 43.17158 17.07466 16085 ft 422 kts 128°
2026-05-07 09:22 43.15366 17.10640 14918 ft 420 kts 128°
2026-05-07 09:22 43.13585 17.13794 14308 ft 419 kts 128°
2026-05-07 09:22 43.11798 17.16954 13894 ft 419 kts 128°
2026-05-07 09:22 43.10020 17.20094 13514 ft 416 kts 128°
2026-05-07 09:23 43.08250 17.23217 13145 ft 414 kts 128°
2026-05-07 09:23 43.06489 17.26323 12891 ft 412 kts 128°
2026-05-07 09:23 43.04771 17.29350 12390 ft 406 kts 128°
2026-05-07 09:23 43.03045 17.32389 11874 ft 399 kts 128°
2026-05-07 09:24 43.01373 17.35327 11277 ft 384 kts 128°
2026-05-07 09:24 42.99781 17.38116 11076 ft 360 kts 128°
2026-05-07 09:24 42.98287 17.40737 10958 ft 339 kts 128°
2026-05-07 09:24 42.96883 17.43202 10857 ft 320 kts 128°
2026-05-07 09:25 42.95548 17.45545 10727 ft 305 kts 128°
2026-05-07 09:25 42.94267 17.47791 10470 ft 297 kts 128°
2026-05-07 09:25 42.93009 17.49995 10140 ft 292 kts 128°
2026-05-07 09:25 42.91764 17.52170 9774 ft 290 kts 128°
2026-05-07 09:26 42.90527 17.54330 9391 ft 289 kts 128°
2026-05-07 09:26 42.89294 17.56484 9011 ft 287 kts 128°
2026-05-07 09:26 42.88065 17.58629 8617 ft 286 kts 128°
2026-05-07 09:26 42.86842 17.60760 8229 ft 285 kts 128°
2026-05-07 09:27 42.85623 17.62884 7851 ft 284 kts 128°
2026-05-07 09:27 42.84409 17.64994 7482 ft 282 kts 129°
2026-05-07 09:27 42.82006 17.69164 6748 ft 278 kts 128°
2026-05-07 09:28 42.80830 17.71205 6397 ft 277 kts 128°
2026-05-07 09:28 42.79647 17.73265 6038 ft 275 kts 128°
2026-05-07 09:28 42.78471 17.75311 5674 ft 274 kts 128°
2026-05-07 09:28 42.77301 17.77347 5304 ft 272 kts 128°
2026-05-07 09:29 42.76136 17.79369 4934 ft 271 kts 129°
2026-05-07 09:29 42.74974 17.81376 4577 ft 269 kts 129°
2026-05-07 09:29 42.73834 17.83344 4408 ft 260 kts 129°
2026-05-07 09:29 42.72698 17.85193 4282 ft 250 kts 131°
2026-05-07 09:30 42.71725 17.87106 4161 ft 243 kts 120°
2026-05-07 09:30 42.70933 17.89098 4037 ft 236 kts 118°
2026-05-07 09:30 42.70182 17.91051 3934 ft 230 kts 118°
2026-05-07 09:30 42.69449 17.92938 3883 ft 220 kts 118°
2026-05-07 09:31 42.68754 17.94717 3894 ft 207 kts 118°
2026-05-07 09:31 42.68097 17.96399 3896 ft 198 kts 118°
2026-05-07 09:31 42.67448 17.98056 3907 ft 199 kts 118°
2026-05-07 09:31 42.66799 17.99714 3907 ft 199 kts 118°
2026-05-07 09:32 42.66157 18.01354 3943 ft 189 kts 118°
2026-05-07 09:32 42.65566 18.02864 3923 ft 174 kts 118°
2026-05-07 09:32 42.65021 18.04255 3806 ft 160 kts 118°
2026-05-07 09:32 42.64510 18.05558 3622 ft 153 kts 118°
2026-05-07 09:33 42.64017 18.06814 3448 ft 151 kts 118°
2026-05-07 09:33 42.63525 18.08067 3241 ft 150 kts 118°
2026-05-07 09:33 42.63036 18.09312 3043 ft 149 kts 118°
2026-05-07 09:33 42.62553 18.10542 2866 ft 143 kts 119°
2026-05-07 09:34 42.62087 18.11728 2666 ft 142 kts 118°
2026-05-07 09:34 42.61623 18.12909 2474 ft 142 kts 119°
2026-05-07 09:34 42.61165 18.14072 2294 ft 141 kts 118°
2026-05-07 09:34 42.60703 18.15245 2098 ft 141 kts 119°
2026-05-07 09:35 42.60243 18.16416 1899 ft 140 kts 119°
2026-05-07 09:35 42.59783 18.17583 1725 ft 140 kts 119°
2026-05-07 09:35 42.59324 18.18748 1532 ft 140 kts 118°
2026-05-07 09:35 42.58866 18.19911 1358 ft 140 kts 119°
2026-05-07 09:36 42.58407 18.21073 1170 ft 139 kts 118°
2026-05-07 09:36 42.57950 18.22233 998 ft 140 kts 118°
2026-05-07 09:36 42.57496 18.23385 793 ft 137 kts 119°
2026-05-07 09:36 42.57044 18.24528 616 ft 137 kts 118°
2026-05-07 09:37 42.56608 18.25629 524 ft 116 kts 118°
2026-05-07 09:37 42.56351 18.26281 516 ft 52 kts 118°
2026-05-07 09:37 42.56219 18.26600 513 ft 18 kts 132°
2026-05-07 09:37 42.56136 18.26568 512 ft 6 kts 239°
2026-05-07 09:38 42.56133 18.26561 512 ft 0 kts 239°
2026-05-07 09:38 42.56131 18.26557 512 ft 1 kts 239°
2026-05-07 09:38 42.56126 18.26545 512 ft 2 kts 239°
2026-05-07 09:39 42.56118 18.26526 512 ft 3 kts 240°
2026-05-07 09:39 42.56107 18.26499 512 ft 4 kts 240°
2026-05-07 09:39 42.56091 18.26503 512 ft 4 kts 158°
2026-05-07 09:39 42.56048 18.26522 512 ft 8 kts 173°
2026-05-07 09:40 42.56023 18.26518 512 ft 1 kts 195°
2026-05-07 09:40 42.56005 18.26510 512 ft 4 kts 202°
2026-05-07 09:40 42.56004 18.26509 512 ft 0 kts 202°
2026-05-07 09:43 42.56005 18.26509 514 ft 0 kts 202°
2026-05-07 09:43 42.56004 18.26509 512 ft 0 kts 202°